This is the latest recevied weather packets stored in our database for station/object N6WDO. If no packets are shown the sender has not sent any weather packets the latest 10 day(s).
| Time | Temp. | Humidity | Pressure | Rain* | Wind** | Luminosity | Snow |
|---|---|---|---|---|---|---|---|
| 1778015175 | 14.44° C | 68% | 1016.6 hPa | 0 mm | - | 152 W/m² | - |
| 1778014872 | 14.44° C | 72% | 1016.7 hPa | 0 mm | - | 192 W/m² | - |
| 1778014570 | 14.44° C | 69% | 1016.5 hPa | 0 mm | - | 180 W/m² | - |
| 1778014267 | 13.89° C | 72% | 1016.8 hPa | 0 mm | - | 164 W/m² | - |
| 1778013964 | 13.89° C | 76% | 1016.5 hPa | 0 mm | - | 166 W/m² | - |
| 1778013662 | 13.89° C | 76% | 1016.7 hPa | 0 mm | - | 174 W/m² | - |
| 1778013358 | 13.89° C | 76% | 1016.6 hPa | 0 mm | - | 143 W/m² | - |
| 1778013056 | 13.89° C | 76% | 1016.5 hPa | 0 mm | - | 110 W/m² | - |
| 1778012751 | 13.89° C | 77% | 1016.5 hPa | 0 mm | - | 86 W/m² | - |
| 1778012447 | 13.89° C | 74% | 1016.6 hPa | 0 mm | - | 111 W/m² | - |
| 1778012144 | 13.89° C | 72% | 1016.7 hPa | 0 mm | - | 155 W/m² | - |
| 1778011842 | 13.89° C | 73% | 1016.6 hPa | 0 mm | - | 153 W/m² | - |
| 1778011540 | 13.89° C | 75% | 1016.5 hPa | 0 mm | - | 166 W/m² | - |
| 1778011237 | 13.89° C | 75% | 1016.2 hPa | 0 mm | - | 152 W/m² | - |
| 1778010932 | 13.89° C | 76% | 1016.6 hPa | 0 mm | - | 157 W/m² | - |
| 1778010630 | 13.89° C | 76% | 1016.8 hPa | 0 mm | - | 146 W/m² | - |
| 1778010327 | 13.89° C | 76% | 1016.7 hPa | 0 mm | - | 142 W/m² | - |
| 1778010022 | 13.89° C | 77% | 1016.8 hPa | 0 mm | - | 144 W/m² | - |
| 1778009720 | 13.89° C | 77% | 1016.8 hPa | 0 mm | - | 151 W/m² | - |
| 1778009417 | 13.89° C | 77% | 1016.6 hPa | 0 mm | - | 163 W/m² | - |
| 1778009116 | 13.89° C | 77% | 1016.6 hPa | 0 mm | - | 182 W/m² | - |
| 1778008813 | 14.44° C | 75% | 1016.5 hPa | 0 mm | - | 202 W/m² | - |
| 1778008511 | 14.44° C | 77% | 1016.9 hPa | 0 mm | - | 230 W/m² | - |
| 1778008209 | 14.44° C | 77% | 1016.6 hPa | 0 mm | - | 225 W/m² | - |
| 1778007903 | 14.44° C | 78% | 1016.7 hPa | 0 mm | - | 244 W/m² | - |
* Rain latest hour (hover to see other rain measurements)
** Current wind speed in m/s (hover to see current wind gust speed)